Dewpoint
65 57 53 50 43 49 46 34 40 44 43 44 45 46 46 51 53 56 61 66 68 69 70 69 73 73 72 72 71 71 72 73 74 73 72 71 71 70 68 67 68 66 66 66 65 65 65 65 64
49 48 44 41 38 40 45 35 40 42 45 47 44 43 47 51 56 56 57 64 67 68 70 68 73 73 72 72 71 72 73 73 72 71 69 67 66 66 66 66 66 66 65 65 64 64 64 64 64
58 53 39 37 33 36 37 33 41 43 47 46 49 47 46 53 56 58 61 64 64 66 69 70 73 73 72 71 72 73 73 72 69 66 66 66 66 66 67 67 66 65 64 64 64 64 65 65 65
42 39 35 29 27 28 30 34 38 43 45 47 54 49 56 56 58 60 60 62 62 64 68 72 73 73 71 71 73 73 72 69 68 66 66 66 66 67 67 66 65 64 62 64 64 64 65 65 65
34 34 28 25 22 25 28 33 35 44 47 47 53 54 56 58 60 60 60 60 60 65 68 70 74 73 71 73 74 73 71 68 68 66 65 65 66 66 65 64 63 63 63 63 63 64 64 65 65
28 26 23 21 23 27 27 30 31 38 54 51 51 55 58 60 60 60 58 58 61 65 65 69 73 72 72 74 73 72 70 68 67 66 65 64 65 64 64 63 63 63 63 63 62 62 62 63 63
25 19 16 14 19 26 34 31 29 50 53 55 55 53 60 58 59 58 57 55 58 61 65 67 67 69 73 74 72 70 69 69 67 66 65 64 65 64 64 63 64 63 62 61 60 60 62 62 62
17 16 12 11 16 35 35 33 38 49 53 56 53 51 54 60 58 57 55 53 53 59 62 63 64 64 70 69 71 69 68 67 66 64 65 66 66 65 63 65 64 62 61 59 58 58 60 62 63
13 13 12 12 16 31 25 38 41 40 51 49 53 55 59 59 57 55 53 52 52 56 58 61 61 63 64 67 68 68 67 67 65 63 65 67 63 63 58 62 62 60 59 58 58 58 59 62 64
10 10 12 19 23 24 20 16 15 25 37 44 51 57 58 58 55 52 51 51 51 52 54 58 61 60 62 64 66 65 64 64 65 62 64 64 65 61 56 61 62 62 60 59 61 64 65 64 58
7 7 8 16 24 23 20 16 17 21 31 47 59 57 58 57 56 51 50 50 51 53 56 56 63 67 61 64 66 63 64 66 66 65 66 65 64 64 59 61 60 63 62 59 60 55 54 56 54
5 6 6 10 21 21 20 19 15 17 27 42 56 55 57 57 55 50 52 53 53 56 58 60 62 67 67 63 63 64 64 67 64 65 65 65 65 65 63 61 61 61 60 59 59 57 57 56 56
5 3 3 2 7 17 17 17 16 12 24 35 55 56 56 56 55 51 50 52 54 56 61 63 67 71 71 68 69 65 64 65 65 64 64 65 65 65 63 62 62 61 60 59 60 58 58 56 54
9 3 4 1 1 7 14 16 17 15 24 37 38 54 55 56 56 53 51 51 55 57 63 64 63 70 70 71 70 69 68 68 67 66 65 64 66 66 64 63 62 60 61 61 61 61 60 57 55
5 4 3 1 1 4 10 13 15 14 24 25 40 43 53 55 56 56 55 57 56 58 64 66 66 69 72 73 70 67 68 65 66 66 65 64 66 65 62 62 60 60 61 60 60 60 58 58 53
2 6 4 5 9 8 10 9 14 17 21 22 31 50 50 53 55 58 56 60 62 60 65 66 62 67 71 73 70 69 67 67 66 67 64 63 63 62 62 60 58 60 61 62 61 60 61 58 58
8 5 8 12 15 12 6 10 30 32 28 25 44 51 50 53 58 61 59 61 62 66 66 68 68 66 70 73 71 68 67 66 67 66 64 63 60 60 60 60 60 59 59 59 59 58 59 60 57
8 7 8 12 17 17 15 24 29 31 29 25 38 47 49 52 56 62 61 62 65 66 68 69 68 70 71 71 69 67 66 65 67 66 65 63 62 57 61 60 58 58 58 58 59 60 59 58 58
9 7 10 13 18 21 33 28 30 32 34 37 40 40 46 53 58 62 63 62 64 67 69 70 70 72 70 69 66 66 66 67 66 65 64 63 62 59 58 60 57 58 58 61 57 55 55 55 53
8 10 11 17 16 20 34 30 34 38 43 44 46 47 49 50 59 60 63 64 65 68 70 69 71 72 70 69 68 67 66 67 65 64 64 62 60 58 57 57 58 57 58 57 57 57 57 56 53
12 14 17 13 23 20 20 39 44 45 45 52 49 52 52 54 58 59 59 63 64 68 69 69 70 71 71 69 67 65 65 64 63 63 62 61 60 59 59 56 56 55 56 57 57 57 57 54 55
17 14 11 10 14 13 20 28 43 48 51 50 50 51 53 55 57 58 64 66 68 69 70 70 71 69 70 70 66 65 63 61 60 61 62 60 59 60 59 56 55 56 58 59 56 55 56 56 52
20 19 14 15 17 18 17 24 42 45 45 43 45 50 53 55 57 60 63 65 67 68 69 69 69 69 70 69 68 65 65 65 61 60 59 60 60 60 58 58 58 56 55 56 55 55 54 55 55
19 19 21 24 21 17 24 23 37 43 40 39 43 45 49 53 57 60 62 63 64 65 65 66 67 69 69 68 67 67 67 64 60 59 58 58 58 58 59 58 58 58 58 56 56 56 55 55 56
22 24 22 25 26 24 26 22 36 40 40 32 40 42 44 47 54 59 59 61 64 64 65 66 67 68 69 68 67 65 65 65 62 61 59 59 59 58 58 60 59 59 58 58 58 56 57 55 54
27 25 22 24 23 26 24 24 33 40 36 30 37 42 44 46 50 55 60 62 63 64 65 64 66 67 68 67 67 67 66 64 64 61 61 61 59 58 60 58 59 59 57 55 56 56 56 55 54
21 20 28 26 23 18 16 28 33 31 28 29 35 40 41 42 47 49 50 57 62 64 65 65 66 67 68 68 68 67 66 66 65 65 64 62 62 58 58 57 59 58 58 57 56 56 55 54 53
17 19 26 20 22 22 24 26 25 28 28 28 31 34 40 42 45 49 53 56 56 56 59 64 67 67 67 68 68 67 67 66 65 65 63 61 58 58 58 58 58 58 58 58 58 55 55 54 55
23 17 18 24 25 20 16 20 33 33 29 27 25 29 41 40 49 54 55 56 56 55 52 64 65 66 65 66 67 67 67 65 65 63 60 59 60 58 58 57 56 57 57 57 58 57 56 54 55
22 20 24 21 24 25 25 22 25 27 26 29 27 25 36 46 48 47 46 49 47 46 47 58 63 62 65 65 65 65 66 65 64 62 61 60 58 58 57 57 57 56 56 55 56 55 53 53 53
Lifted_Index
2 2 2 1 1 0 -0 -1 -1 -1 -1 -1 -1 -0 -0 -1 -2 -1 -2 -3 -4 -4 -3 -2 -2 -2 -2 -2 -2 -2 -2 -2 -2 -2 -1 -0 0 1 1 2 2 2 2 3 3 3 3 3 3
3 2 2 2 1 0 -0 -1 -1 -1 -1 -1 -1 -0 -0 -1 -1 -1 -2 -2 -3 -3 -3 -2 -2 -2 -2 -1 -2 -2 -2 -2 -1 -0 1 1 2 2 2 2 2 2 3 3 3 3 3 3 3
3 3 2 2 1 -0 -0 -1 -1 -1 -1 -2 -1 -1 -1 -1 -2 -2 -2 -2 -2 -2 -2 -2 -2 -2 -2 -1 -2 -2 -2 -1 0 1 2 2 2 2 2 2 2 3 3 4 4 4 3 3 3
4 4 3 2 0 -0 0 0 -0 -1 -2 -2 -2 -2 -2 -2 -2 -2 -2 -2 -1 -1 -2 -2 -2 -2 -2 -2 -3 -3 -2 -0 1 2 3 3 2 2 2 2 3 3 4 4 4 4 3 3 3
6 5 3 2 0 0 1 1 0 -1 -2 -3 -3 -4 -4 -4 -3 -3 -2 -1 -1 -2 -2 -2 -2 -2 -2 -3 -3 -3 -2 0 2 2 3 3 2 2 2 3 3 4 4 4 4 4 4 4 4
6 5 3 1 -0 -0 1 1 0 -1 -2 -2 -3 -4 -5 -5 -4 -3 -2 -1 -2 -2 -2 -2 -2 -2 -3 -3 -3 -2 -1 0 1 2 2 3 2 3 3 3 4 4 4 4 4 4 4 4 4
6 5 2 0 -1 -0 0 0 -0 -1 -1 -2 -2 -3 -4 -5 -4 -3 -2 -2 -1 -2 -2 -2 -2 -2 -3 -3 -3 -2 -1 0 1 2 2 2 2 3 3 3 3 3 4 5 5 5 5 5 5
6 5 2 0 -1 -1 -0 0 -1 -1 -1 -1 -2 -3 -4 -5 -4 -4 -3 -2 -1 -2 -2 -2 -1 -1 -3 -3 -2 -1 -0 1 1 2 2 2 2 2 3 3 3 4 4 5 6 6 5 5 5
6 4 2 -0 -1 -0 0 0 -0 -1 -1 -2 -3 -4 -5 -5 -4 -3 -3 -2 -1 -1 -2 -1 -1 -1 -2 -2 -1 -0 0 0 1 1 1 1 1 2 3 4 4 4 5 6 6 6 5 5 5
5 4 1 -0 0 0 1 1 0 -0 -1 -3 -4 -6 -6 -6 -5 -3 -2 -2 -1 -1 -2 -2 -1 -1 -2 -2 -1 -0 -0 -1 -0 0 1 1 1 3 4 4 4 4 5 5 6 6 5 5 5
5 4 2 1 2 2 1 1 1 0 -1 -2 -4 -6 -7 -6 -5 -3 -2 -2 -2 -2 -2 -2 -2 -2 -2 -2 -1 -1 -1 -2 -1 -1 0 1 1 2 3 4 4 4 4 5 5 6 6 6 6
5 4 3 3 3 3 2 1 0 -0 -0 -1 -3 -5 -6 -6 -5 -4 -3 -3 -3 -3 -3 -3 -3 -3 -3 -2 -2 -2 -2 -2 -2 -1 0 1 1 2 3 3 4 4 4 4 5 6 6 7 7
4 4 4 4 4 4 3 1 0 -0 -0 -1 -3 -5 -6 -6 -5 -4 -4 -3 -3 -3 -4 -4 -4 -4 -4 -4 -3 -3 -3 -2 -2 -1 0 0 1 1 2 3 3 4 4 4 4 5 6 6 7
4 4 4 4 4 3 3 2 0 -0 -1 -1 -3 -4 -5 -6 -6 -5 -4 -4 -4 -4 -5 -5 -5 -6 -6 -6 -5 -4 -3 -3 -2 -1 -1 -0 0 1 2 3 3 4 4 4 4 5 5 6 6
4 3 3 3 3 3 2 2 0 -0 -0 -1 -2 -3 -5 -6 -6 -6 -5 -5 -5 -5 -5 -6 -6 -6 -7 -7 -5 -4 -3 -2 -2 -1 -1 -0 1 2 3 3 4 4 5 4 4 5 5 5 6
3 2 1 1 1 2 2 1 0 -0 -0 -1 -2 -3 -5 -6 -7 -7 -6 -6 -6 -6 -6 -6 -6 -6 -7 -7 -5 -4 -3 -2 -1 -1 -1 -0 1 3 4 4 5 5 5 5 4 4 4 5 5
1 0 -0 -0 0 0 1 0 -0 -0 0 -1 -2 -4 -5 -6 -7 -8 -7 -7 -7 -7 -7 -7 -6 -7 -7 -7 -5 -4 -2 -2 -1 -1 -0 0 2 4 4 5 5 6 6 5 4 4 5 5 5
-0 -0 -1 -0 -0 -0 -0 -0 -0 0 0 -1 -2 -4 -5 -6 -8 -8 -8 -8 -7 -7 -7 -7 -7 -7 -7 -6 -4 -3 -2 -1 -1 -0 -0 0 2 4 5 5 6 6 5 5 4 5 5 6 6
-0 -0 -1 -0 0 0 -0 -1 -1 -1 -1 -2 -3 -4 -5 -6 -7 -8 -8 -8 -8 -8 -8 -7 -7 -7 -7 -5 -4 -3 -2 -1 -1 -0 -0 1 2 4 5 5 6 6 5 4 4 5 6 6 7
0 -0 -1 0 1 1 0 -1 -1 -1 -2 -3 -3 -4 -5 -6 -7 -8 -8 -8 -8 -8 -8 -7 -7 -7 -6 -5 -4 -3 -2 -1 -0 0 0 1 2 4 4 5 5 5 4 4 4 5 5 6 7
-0 -0 0 0 1 0 -0 -1 -1 -1 -1 -2 -3 -5 -5 -6 -7 -7 -8 -8 -8 -8 -8 -7 -7 -7 -6 -5 -4 -3 -2 -1 0 1 1 1 2 3 3 4 6 5 4 4 4 5 5 6 6
0 1 1 1 1 0 -0 -0 -0 -0 -0 -1 -3 -4 -5 -6 -7 -7 -8 -8 -8 -8 -7 -7 -6 -6 -6 -5 -4 -2 -1 -1 0 1 1 1 2 2 2 4 6 6 4 4 4 5 6 6 6
1 2 2 1 1 -0 -0 -0 -0 0 0 -1 -2 -3 -4 -5 -6 -7 -7 -7 -7 -7 -6 -6 -5 -5 -5 -4 -3 -2 -1 -1 0 1 1 1 2 2 3 4 5 6 5 5 5 6 6 6 6
2 2 2 1 0 -0 -0 -0 -0 0 0 -1 -1 -2 -2 -3 -4 -5 -6 -6 -6 -6 -6 -5 -5 -5 -5 -4 -3 -2 -2 -1 0 1 1 2 2 2 3 4 5 6 6 6 6 6 6 6 6
2 1 1 0 -0 -0 -0 -0 -0 0 1 0 -0 -1 -1 -2 -3 -4 -5 -5 -6 -5 -5 -5 -5 -5 -5 -4 -3 -2 -1 -1 -0 0 1 1 2 2 2 3 5 5 6 6 6 6 6 6 6
0 0 0 0 -0 -0 -0 -0 -0 0 1 1 0 0 0 -0 -1 -2 -4 -5 -5 -6 -5 -5 -5 -5 -5 -4 -3 -2 -1 -1 -0 -0 1 1 1 2 2 3 4 5 5 6 6 6 6 6 6
1 0 0 0 0 -0 -0 -0 -0 0 1 1 1 1 0 0 -0 -1 -2 -3 -4 -5 -5 -5 -5 -5 -5 -4 -4 -3 -2 -1 -1 -0 0 1 1 2 3 4 4 4 5 5 6 6 6 6 7
1 1 1 1 0 -0 -0 -0 -0 0 1 1 1 0 0 -0 -1 -1 -2 -2 -3 -3 -3 -4 -5 -5 -4 -4 -4 -3 -2 -2 -1 -1 -0 0 1 2 3 4 4 4 4 5 5 6 6 7 7
1 1 1 1 1 0 -0 -0 -0 -0 0 0 1 -0 -1 -1 -1 -2 -2 -2 -2 -2 -2 -3 -4 -4 -4 -4 -4 -3 -3 -2 -1 -1 -1 -0 0 2 3 4 4 4 4 4 5 5 6 6 7
1 1 1 1 1 0 0 0 0 0 0 1 1 -0 -1 -2 -2 -2 -2 -2 -1 -1 -1 -3 -4 -4 -4 -4 -3 -3 -3 -2 -1 -1 -1 -1 -0 1 3 3 3 3 4 4 4 5 6 6 7